Retour au catalogue

COSMOS 1503

ActifNavigationLEO
NORAD 14401·PAYLOAD·🇷🇺 Russia

Lancé Oct 12, 1983 depuis Plesetsk Cosmodrome

Loading…

Prochains Passages (prochaines 24 heures)

TLE

FraisSource: Space-Track

Époque: Sep 14, 2026, 09:21 UTC

1 14401U 83103A   26257.38959270  .00000070  00000-0  35011-4 0  9991
2 14401  74.0444 310.7282 0012413  46.5706 313.6476 14.33143548242269

Suivez COSMOS 1503 en temps réel avec AllMySat

Download on the App Store